Location: Oshawa
(43.9000°N, 78.8670°W)
Time: 20:05:05
(UTC-05:00)

Cosmos 1805 Rocket - Visible Passes

Search period start: 20 December 2014 00:00
Search period end: 30 December 2014 00:00
Orbit: 608 x 631 km, 82.5° (Epoch: 19 December)

Date Brightness Start Highest point End Pass type
(mag) Time Alt. Az. Time Alt. Az. Time Alt. Az.
20 Dec 6.1 06:44:16 10° NNE 06:47:34 20° ENE 06:50:50 10° ESE visible
21 Dec 5.2 07:01:09 10° N 07:05:13 35° ENE 07:09:14 10° SE visible
23 Dec 6.5 05:59:59 10° NE 06:01:49 12° ENE 06:03:39 10° E visible
24 Dec 6.0 06:16:11 10° NNE 06:19:34 21° ENE 06:22:55 10° ESE visible
25 Dec 5.1 06:33:06 10° N 06:37:12 37° ENE 06:41:15 10° SE visible
26 Dec 3.9 06:50:21 10° N 06:54:44 70° E 06:59:04 10° SSE visible
27 Dec 6.5 05:31:46 10° NE 05:33:49 13° ENE 05:35:52 10° E visible
27 Dec 3.6 07:07:49 10° NNW 07:12:10 62° W 07:16:26 10° S visible
28 Dec 5.9 05:48:05 10° NNE 05:51:33 23° ENE 05:54:59 10° SE visible
29 Dec 4.9 06:05:02 10° N 06:09:10 40° ENE 06:13:15 10° SSE visible
